STARLINK-31891 (59854 NORAD) Tracking and Keplerian Element Data

This shows tracking and keplerian element data for the satellite.

Feedback or suggestion? Click here.




ElementValue
Catalog59854
NameSTARLINK-31891
Epoch Orbit375
Epoch Day160.16667824
Epoch Year2024
RAAN318.5963
Inclination43.0009
Eccentricity0.0001875
Argument of Perigee286.375
Mean Anonmoly92.1403
Mean Motion15.66642532
Decay Rate-0.01740177
L11 59854U 24097V 24160.16667824 -.01740177 00000+0 -18375-1 0 9999
L22 59854 43.0009 318.5963 0001875 286.3750 92.1403 15.66642532 3750



Live tracking and technical data element details for STARLINK-31891 (NORAD 59854). STARLINK-31891 can be tracked NOW for your location showing map with azimuth and elevation plus other details from your city location.







IsCatalogInMostPopularTable: catalog: 59854, numindb: 7
Update: records affected: 1



GetName: 59854 STARLINK-31891

Hit Count: updated at: Thu, 25 Jul 2024 00:51:51 GMT